Weather History for Rolla, MO

Change the Weather History Date:

Tuesday, July 23, 2013

  Actual Average Record
Temperature  
Mean Temperature 79 °F 78 °F  
Max Temperature 91 °F 89 °F 112 °F (1901)
Min Temperature 67 °F 67 °F 54 °F (2000)
Degree Days  
Heating Degree Days 0 0  
Month to date heating degree days 0 0  
Since 1 June heating degree days 17 14  
Since 1 July heating degree days 0 0  
Cooling Degree Days 14 13  
Month to date cooling degree days 248 280  
Year to date cooling degree days 572 622  
Since 1 June cooling degree days 465 515  
Growing Degree Days 28 (Base 50)    
Moisture  
Dew Point 69 °F    
Average Humidity 76    
Maximum Humidity 93    
Minimum Humidity 59    
Precipitation  
Precipitation 0.00 in 0.14 in 3.07 in (1981)
Month to date precipitation 2.80 3.32  
Year to date precipitation 27.89 24.76  
Sea Level Pressure  
Sea Level Pressure 29.84 in    
Wind  
Wind Speed 7 mph (WSW)    
Max Wind Speed 20 mph    
Max Gust Speed 24 mph    
Visibility 10 miles    
Events Thunderstorm    
T = Trace of Precipitation, MM = Missing Value Source: NWS Daily Summary

Daily Weather History Graph

Daily Weather History Graph

Search for Another Location

Airport:

Trip Planner

Search our weather history database for the weather conditions in past years. The results will help you decide how hot, cold, wet, or windy it might be!

Date:

Astronomy

Jul. 23, 2013 Rise Set
Actual Time 6:02 AM CDT 8:24 PM CDT
Civil Twilight 5:32 AM CDT 8:54 PM CDT
Nautical Twilight 4:55 AM CDT 9:31 PM CDT
Astronomical Twilight 4:14 AM CDT 10:11 PM CDT
Moon 8:55 PM CDT (7/23) 7:09 AM CDT (7/23)
Length of Visible Light 15h 21m
Length of Day
14h 21m
Full, 99% of the Moon is Illuminated
Jul 23
Full
Jul 29
Last Quarter
Aug 6
New
Aug 14
First Quarter
Aug 20
Full

Hourly Weather History & Observations

Time (CDT) Temp. Heat Index Dew Point Humidity Pressure Visibility Wind Dir Wind Speed Gust Speed Precip Events Conditions
12:53 AM 73.0 °F - 68.0 °F 84% 29.83 in 10.0 mi SSW 8.1 mph - N/A   Clear
1:53 AM 72.0 °F - 66.9 °F 84% 29.83 in 10.0 mi SW 6.9 mph - N/A   Clear
2:53 AM 73.0 °F - 66.0 °F 79% 29.84 in 10.0 mi Calm Calm - N/A   Clear
3:40 AM 73.4 °F - 66.2 °F 78% 29.86 in 10.0 mi Calm Calm - N/A Thunderstorm Thunderstorm
3:53 AM 72.0 °F - 68.0 °F 87% 29.84 in 10.0 mi WSW 6.9 mph - N/A Thunderstorm Overcast
4:24 AM 69.8 °F - 66.2 °F 88% 29.85 in 10.0 mi SSW 12.7 mph - N/A   Scattered Clouds
4:39 AM 69.8 °F - 66.2 °F 88% 29.85 in 10.0 mi SSW 6.9 mph - N/A Thunderstorm Clear
4:53 AM 69.1 °F - 66.0 °F 90% 29.83 in 10.0 mi SW 12.7 mph - N/A   Clear
5:53 AM 66.9 °F - 64.9 °F 93% 29.80 in 10.0 mi SSW 12.7 mph - N/A   Clear
6:53 AM 68.0 °F - 66.0 °F 93% 29.81 in 10.0 mi SW 9.2 mph - N/A   Clear
7:53 AM 72.0 °F - 66.9 °F 84% 29.83 in 10.0 mi SW 9.2 mph - N/A   Clear
8:53 AM 75.9 °F - 69.1 °F 79% 29.83 in 10.0 mi SW 6.9 mph - N/A   Clear
9:53 AM 80.1 °F 83.6 °F 71.1 °F 74% 29.84 in 10.0 mi WSW 8.1 mph - N/A   Clear
10:53 AM 82.9 °F 89.4 °F 73.9 °F 74% 29.86 in 10.0 mi West 8.1 mph - N/A   Scattered Clouds
11:53 AM 86.0 °F 96.0 °F 75.9 °F 72% 29.86 in 10.0 mi North 8.1 mph - N/A   Scattered Clouds
12:53 PM 86.0 °F 95.1 °F 75.0 °F 70% 29.85 in 10.0 mi North 4.6 mph - N/A   Mostly Cloudy
1:53 PM 89.1 °F 99.1 °F 75.0 °F 63% 29.83 in 10.0 mi North 5.8 mph - N/A   Scattered Clouds
2:53 PM 90.0 °F 99.0 °F 73.9 °F 59% 29.82 in 10.0 mi North 4.6 mph - N/A   Mostly Cloudy
3:53 PM 89.1 °F 97.0 °F 73.0 °F 59% 29.80 in 10.0 mi NNW 5.8 mph - N/A   Clear
4:53 PM 88.0 °F 96.5 °F 73.9 °F 63% 29.79 in 10.0 mi North 10.4 mph - N/A   Mostly Cloudy
5:53 PM 87.1 °F 95.4 °F 73.9 °F 65% 29.79 in 10.0 mi NNE 10.4 mph - N/A   Clear
6:53 PM 84.9 °F 90.1 °F 71.1 °F 63% 29.82 in 10.0 mi NE 8.1 mph - N/A   Clear
7:53 PM 82.0 °F 86.3 °F 71.1 °F 69% 29.83 in 10.0 mi NE 4.6 mph - N/A   Clear
8:53 PM 75.9 °F - 69.1 °F 79% 29.86 in 10.0 mi SSW 5.8 mph - N/A   Overcast
9:53 PM 71.1 °F - 64.9 °F 81% 29.88 in 10.0 mi South 4.6 mph - N/A   Partly Cloudy
10:53 PM 70.0 °F - 66.0 °F 87% 29.86 in 10.0 mi SE 3.5 mph - N/A   Clear
11:53 PM 68.0 °F - 66.0 °F 93% 29.88 in 10.0 mi Calm Calm - N/A   Clear